Clines Corners, NM

10:13 PM MST on February 19, 2017 (GMT -0700)
Clines Corner

Weather History for KCQC - April, 2013

Change the Weather History Date:

Tuesday, April 9, 2013

  Actual Average (KSAF) Record (KSAF)
Temperature  
Mean Temperature 38 °F -  
Max Temperature 53 °F 0 °F 77 °F (2014)
Min Temperature 26 °F - 24 °F (1998)
Degree Days  
Heating Degree Days 26    
Moisture  
Dew Point 23 °F    
Average Humidity 61    
Maximum Humidity 86    
Minimum Humidity 26    
Precipitation  
Precipitation 0.03 in - - ()
Sea Level Pressure  
Sea Level Pressure 29.61 in    
Wind  
Wind Speed 18 mph (SE)    
Max Wind Speed 36 mph    
Max Gust Speed 51 mph    
Visibility 7 miles    
Events Rain , Snow    
Averages and records for this station are not official NWS values.
T = Trace of Precipitation, MM = Missing Value Source: NWS Daily Summary

Daily Weather History Graph

Daily Weather History Graph

Search for Another Location

Airport or City:

Trip Planner

Search our weather history database for the weather conditions in past years. The results will help you decide how hot, cold, wet, or windy it might be!

Date:

Astronomy

Apr. 09, 2013 Rise Set
Actual Time 6:38 AM MDT 7:30 PM MDT
Civil Twilight 6:12 AM MDT 7:56 PM MDT
Nautical Twilight 5:41 AM MDT 8:26 PM MDT
Astronomical Twilight 5:10 AM MDT 8:58 PM MDT
Moon 6:01 AM MDT (4/9) 7:08 PM MDT (4/9)
Length of Visible Light 13h 44m
Length of Day
12h 52m
Waning Crescent, 0% of the Moon is Illuminated
Apr 9
Waning Crescent
Apr 10
New
Apr 18
First Quarter
Apr 25
Full
May 2
Last Quarter

Hourly Weather History & Observations

Time (MDT) Temp. Windchill Dew Point Humidity Pressure Visibility Wind Dir Wind Speed Gust Speed Precip Events Conditions
12:53 AM 50.0 °F - 21.9 °F 33% 29.32 in 10.0 mi South 13.8 mph - N/A   Scattered Clouds
1:53 AM 51.1 °F - 24.1 °F 35% 29.29 in 10.0 mi SW 19.6 mph 28.8 mph N/A   Partly Cloudy
2:53 AM 50.0 °F - 28.0 °F 43% 29.26 in 10.0 mi SW 19.6 mph - N/A   Clear
3:53 AM 48.9 °F - 28.0 °F 44% 29.25 in 7.0 mi SW 25.3 mph 34.5 mph N/A   Scattered Clouds
4:53 AM 46.9 °F - 23.0 °F 39% 29.28 in 10.0 mi SSW 20.7 mph 36.8 mph N/A   Partly Cloudy
5:53 AM 45.0 °F 34.4 °F 12.0 °F 26% 29.30 in 10.0 mi SW 35.7 mph 50.6 mph N/A   Partly Cloudy
6:53 AM 43.0 °F 33.5 °F 14.0 °F 31% 29.34 in 10.0 mi SSW 24.2 mph 31.1 mph N/A   Clear
7:53 AM 37.0 °F 23.7 °F 27.0 °F 67% 29.43 in 10.0 mi WSW 34.5 mph 47.2 mph N/A   Clear
8:53 AM 41.0 °F 29.5 °F 25.0 °F 53% 29.42 in 10.0 mi SSW 32.2 mph 40.3 mph N/A   Partly Cloudy
9:53 AM 44.1 °F 34.6 °F 23.0 °F 43% 29.44 in 10.0 mi SW 26.5 mph 36.8 mph N/A   Scattered Clouds
10:53 AM 44.1 °F 35.7 °F 19.0 °F 37% 29.47 in 10.0 mi WSW 20.7 mph 31.1 mph 0.00 in   Mostly Cloudy
11:53 AM 46.0 °F 38.5 °F 17.1 °F 31% 29.47 in 10.0 mi SW 19.6 mph 25.3 mph 0.00 in   Scattered Clouds
12:53 PM 46.9 °F - 15.1 °F 28% 29.48 in 10.0 mi SW 24.2 mph 31.1 mph N/A   Mostly Cloudy
1:46 PM 51.8 °F - 17.6 °F 26% 29.67 in 10.0 mi South 21.9 mph 31.1 mph N/A   Scattered Clouds
1:53 PM 50.0 °F - 18.0 °F 28% 29.49 in 10.0 mi South 17.3 mph 27.6 mph N/A   Mostly Cloudy
2:53 PM 41.0 °F 32.8 °F 19.0 °F 41% 29.57 in 6.0 mi East 16.1 mph 20.7 mph 0.00 in Rain Light Rain
3:53 PM 36.0 °F 26.3 °F 24.1 °F 62% 29.61 in 8.0 mi ENE 16.1 mph 23.0 mph 0.00 in   Overcast
4:27 PM 33.8 °F 23.5 °F 26.6 °F 75% 29.75 in 1.8 mi ENE 16.1 mph - 0.01 in Snow Light Snow
4:42 PM 33.8 °F 23.2 °F 26.6 °F 75% 29.75 in 2.0 mi ENE 17.3 mph - 0.03 in Snow Light Snow
4:53 PM 33.1 °F 21.9 °F 27.0 °F 78% 29.67 in 2.5 mi NE 18.4 mph - 0.03 in Snow Light Snow
4:57 PM 33.8 °F 22.8 °F 26.6 °F 75% 29.75 in 3.0 mi ENE 18.4 mph - 0.00 in Snow Light Snow
5:51 PM 33.8 °F 25.3 °F 28.4 °F 81% 29.78 in 3.0 mi ENE 11.5 mph - 0.00 in Snow Light Snow
5:53 PM 34.0 °F 25.0 °F 28.0 °F 79% 29.70 in 3.0 mi ENE 12.7 mph - 0.00 in Snow Light Snow
6:00 PM 33.8 °F 24.3 °F 28.4 °F 81% 29.79 in 2.5 mi ENE 13.8 mph - 0.00 in Snow Light Snow
6:08 PM 33.8 °F 24.3 °F 26.6 °F 75% 29.80 in 6.0 mi ENE 13.8 mph - 0.00 in Snow Light Snow
6:49 PM 32.0 °F 23.0 °F 26.6 °F 80% 29.81 in 1.8 mi East 11.5 mph - 0.00 in Snow Light Snow
6:53 PM 30.9 °F 21.7 °F 26.1 °F 82% 29.75 in 2.0 mi ESE 11.5 mph - 0.00 in Snow Light Snow
7:06 PM 30.2 °F 21.3 °F 26.6 °F 86% 29.81 in 1.5 mi East 10.4 mph - 0.00 in Snow Light Snow
7:19 PM 30.2 °F 22.6 °F 26.6 °F 86% 29.81 in 3.0 mi East 8.1 mph - 0.00 in Snow Light Snow
7:51 PM 30.2 °F 21.9 °F 24.8 °F 80% 29.81 in 10.0 mi East 9.2 mph - 0.00 in   Scattered Clouds
7:53 PM 30.0 °F 21.7 °F 25.0 °F 82% 29.79 in 10.0 mi East 9.2 mph - 0.00 in   Scattered Clouds
8:53 PM 28.0 °F 20.0 °F 23.0 °F 81% 29.80 in 10.0 mi East 8.1 mph - N/A   Clear
9:53 PM 27.0 °F 17.3 °F 23.0 °F 85% 29.82 in 10.0 mi East 10.4 mph - N/A   Mostly Cloudy
10:53 PM 28.0 °F 20.0 °F 23.0 °F 81% 29.81 in 10.0 mi East 8.1 mph - N/A   Overcast
11:44 PM 26.6 °F 19.1 °F 21.2 °F 80% 29.87 in 10.0 mi East 6.9 mph - N/A   Overcast
11:53 PM 27.0 °F 19.5 °F 21.9 °F 81% 29.82 in 10.0 mi ESE 6.9 mph - N/A   Overcast